This demonstration page uses our WeatherBlox Daily Observations layout. Learn more.

38.88101, -77.10428

Hourly Observations for September 1, 2015

Temp ( °F °C ) Dew Point ( °F °C ) Humidity (%) Winds ( mph kmh ) Pressure ( in mb ) Visibility ( mi km ) Precip ( " mm )
12:52 am 00:52 Partly Cloudy 75 23.9 70 21.1 84 84 SW 8 13 30.07 1018 10 16.0934 0 0
1:52 am 01:52 Mostly Clear 74 23.3 70 21.1 88 88 SSW 6 9 30.06 1018 10 16.0934 0 0
2:52 am 02:52 Mostly Clear 73 22.8 70 21.1 90 90 SSW 6 9 30.05 1018 10 16.0934 0 0
3:52 am 03:52 Mostly Clear 72 22.2 69 20.6 91 91 SW 6 9 30.04 1017 10 16.0934 0 0
4:52 am 04:52 Mostly Clear 72 22.2 69 20.6 91 91 SW 3 6 30.04 1017 10 16.0934 0 0
5:52 am 05:52 Mostly Clear 72 22.2 69 20.6 91 91 SSW 3 6 30.04 1017 10 16.0934 0 0
6:52 am 06:52 Partly Cloudy 72 22.2 69 20.6 91 91 WSW 3 6 30.05 1018 10 16.0934 0 0
7:52 am 07:52 Mostly Sunny 75 23.9 70 21.1 84 84 Calm 30.07 1018 10 16.0934 0 0
8:52 am 08:52 Mostly Sunny 79 26.1 68 20 69 69 NNW 6 9 30.07 1018 10 16.0934 0 0
9:52 am 09:52 Mostly Sunny 83 28.3 69 20.6 63 63 VRB 5 7 30.07 1018 10 16.0934 0 0
10:52 am 10:52 Mostly Sunny 88 31.1 69 20.6 54 54 N 3 6 30.08 1019 10 16.0934 0 0
11:52 am 11:52 Partly Cloudy 91 32.8 66 18.9 44 44 N 8 13 30.07 1018 10 16.0934 0 0
12:52 pm 12:52 Mostly Cloudy 90 32.2 67 19.4 47 47 Calm 30.06 1018 10 16.0934 0 0
1:52 pm 13:52 Mostly Cloudy 93 33.9 66 18.9 41 41 ENE 3 6 30.05 1018 10 16.0934 0 0
2:52 pm 14:52 Mostly Cloudy 95 35 65 18.3 37 37 NNW 7 11 30.03 1017 10 16.0934 0 0
3:52 pm 15:52 Partly Cloudy 93 33.9 66 18.9 41 41 NE 3 6 30.01 1016 10 16.0934 0 0
4:52 pm 16:52 Partly Cloudy 94 34.4 64 17.8 37 37 Calm 30 1016 10 16.0934 0 0
5:52 pm 17:52 Mostly Cloudy 90 32.2 71 21.7 54 54 S 8 13 30 1016 10 16.0934 0 0
6:52 pm 18:52 Mostly Cloudy 87 30.6 71 21.7 59 59 S 8 13 30.01 1016 10 16.0934 0 0
7:52 pm 19:52 Mostly Cloudy 82 28 64 18 55 55 S 10 17 30.03 1017 10 16.0934 0 0
8:52 pm 20:52 Mostly Cloudy 82 27.8 74 23.3 77 77 S 5 7 30.04 1017 10 16.0934 0 0
9:52 pm 21:52 Mostly Cloudy 80 26.7 74 23.3 82 82 S 5 7 30.04 1017 10 16.0934 0 0
10:52 pm 22:52 Mostly Cloudy 80 26.7 73 22.8 79 79 S 5 7 30.04 1017 10 16.0934 0 0
11:52 pm 23:52 Mostly Cloudy 80 26.7 74 23.3 82 82 S 3 6 30.05 1018 10 16.0934 0 0

Powered by AerisWeather